Location: Casa Rossa
(45.2389°N, 12.2056°E)
Time: 04:33:46
(UTC+00:00)

CZ-4C R/B - Pass Details

Date: 14 July 2020
Orbit: 632 x 1370 km, 63.4° (Epoch: 11 August)

Event Time Altitude Azimuth Distance (km) Brightness Sun altitude
Rises 00:17:16 0° 309° (NW) 4,006 6.0 -21.7°
Reaches altitude 10° 00:20:49 10° 292° (WNW) 3,161 5.2 -21.6°
Maximum altitude 00:25:44 19° 252° (WSW) 2,691 4.5 -21.3°
Enters shadow 00:26:34 18° 245° (WSW) 2,724 4.4 -21.3°
